FLOCK 4Q 35

导读

FLOCK 4Q 35是美国Planet Labs公司FLOCK星群下的一颗SuperDove高分辨率光学遥感卫星,于北京时间2023年11月11日发射入轨。该卫星归属Planet的商业遥感Dove星座组网,配备多光谱成像设备,可提供高频次全球对地观测数据,服务农业监测、资源管理、灾害应急、城市规划等多领域商业与科研应用,补充了星座的在轨观测能力,保障高频次重访观测数据的持续供给。

基本信息
目录编号:
58309
目录名称:
FLOCK 4Q 35
国际标识:
2023-174BF
轨道中心:
EARTH
卫星名称:
FLOCK 4Q 35
卫星全名:
--
卫星状态:
在轨 (已飞行943 天)
发射日期:
2023-11-11 UTC
国别 :
美国 (US)
星等 :
--
轨道信息
数据来源 国际轨道数据
星历时间: 2026-06-11T13:53:21+0800
14小时前
查看轨道信息
半长轴: 6774.906km
偏心率: 0.0006124
轨道倾角: 97.388°
近地点辐角 167.064°
升交点赤经 254.131°
平近点角 193.077°
近地点: 392.62km
远地点: 400.918km
周期: 92.494分钟
每日圈数: 15.568539
详细信息
使用方式:
暂无
2D轨道图
3D轨道图
轨道高度分析图
轨道倾角分析图
轨道综合分析图
查看轨道综合分析图